loading
DOY 198 | 2024-07-16T13:35:07Z

STARLINK-31848, 59784

Orbit data source: Space-Track

STARLINK-31848, 59784 is a payload satellite owned by SpaceX/Seattle (US) in LEO that was launched on Sat, 18 May 2024 UTC via a Falcon 9 launch vehicle from the Air Force Eastern Test Range (AFETR). Payloads include a variety of satellites, spacecraft, and rockets equipped with specific instruments for various scientific and technological missions. These include communications satellites like Starlink; space stations such as the ISS; scientific satellites like the Hubble; Earth observation satellites from companies like Planet Labs, Umbra, and HawkEye 360; GPS; miniature CubeSats for education and research; and military/defense satellites.

Loading next visibility...
Loading greatness...
STARLINK-31848 details
NORAD ID59784
COSPAR ID
2024-093C
Orbit
LEO
Last TLE update23 hours ago
Origin
Flag of USSpaceX/Seattle (US)
ManufacturerSpaceX/Seattle
BusStarlink V2M
MotorUnknown
Mass750 kg wet, ~700 kg dry
Launch date (UTC)
2024-05-18 (2 months ago)
Launch vehicle
Falcon 9
Launch site
Air Force Eastern Test Range (AFETR)
Object type
Payload
Rocket body
Debris
Radar Cross SectionLarge (>1 m²)
Predictive object data (real-time)
Latitude-38.96653°
Longitude114.35839°
Altitude454.601 km
Speed7.641 km/s
Apparent Right ascension16h 10m 47s
Apparent Declination-42° 44' 25"
Sunlit
Object is in full shadow
Predictive observer data (real-time)
Local Sidereal Time02:14:11
Azimuth253.061° W
Elevation-68.037°
Doppler factor1
Orbital elements
Apogee447.268 km
Perigee444.775 km
Semi-major axis6,824.159 km
Eccentricity0.0001826
Inclination43.0033°
RAAN35.2507°
Arg. of periapsis270.9038°
True anomaly89.18182°
Mean anomaly89.1609°
Mean motion3.85008 °/min
BSTAR0.00001012
Period93.5 mins
Definitive object data (Epoch: 2024-07-15T14:44:12.567Z)
Latitude-0.00006°
Longitude-119.74646°
Altitude443.822 km
Speed7.648 km/s
True Right ascension02h 21m 00s
True Declination0° 00' 00"
Sunlit
Object was in daylight at TLE epoch
TLE from 23 hours ago
0 STARLINK-31848
1 59784U 24093C   24197.61403435  .00000119  00000-0  10120-4 0  9999
2 59784  43.0033  35.2507 0001826 270.9038  89.1609 15.40691965 10310
Epoch: 2024-07-15T14:44Z
No data available

STARLINK-31848 Visibility forecast

Observer location: 39.9160978°, -105.1181434

STARLINK-31848 is not visible in the next 10 days
Span
Click to sort rows by Start time (UTC) header in descending order
Start Az.
Max El. time (UTC)
Max El. Az.
Max El.
End time (UTC)
End Az.